Station FPKG1 - 8670870 - Fort Pulaski, GA Image indicating link to RSS feed of recent meteorological observations for station FPKG1


Conditions at FPKG1 as of
(2:18 am EDT)
0618 GMT on 06/24/2024:
     

Click on the graph icon in the table below to see a time series plot of the last five days of that observation.

5-day plot - Wind Direction Wind Direction (WDIR): SW ( 220 deg true )
5-day plot - Wind Speed Wind Speed (WSPD): 8.9 kts
5-day plot - Wind Gust Wind Gust (GST): 13.0 kts
5-day plot - Atmospheric Pressure Atmospheric Pressure (PRES):29.89 in
5-day plot - Air Temperature Air Temperature (ATMP): 81.5 °F
5-day plot - Water Temperature Water Temperature (WTMP): 83.3 °F
5-day plot - Wind Speed at 10 Meters Wind Speed at 10 meters (WSPD10M): 9.7 kts
5-day plot - Wind Speed at 20 Meters Wind Speed at 20 meters (WSPD20M): 9.7 kts
5-day plot -  Wind Speed, Wind Gust and Atmospheric Pressure Combined plot of Wind Speed, Gust, and Air Pressure
NOS Water Level Observation Network Water Level
Previous observations
TIME
(EDT)
5-day plot - Wind Direction
WDIR
 
5-day plot - Wind Speed
WSPD
kts
5-day plot - Wind Gust
GST
kts
5-day plot - Wave Height
WVHT
ft
5-day plot - Dominant Wave Period
DPD
sec
5-day plot - Average Wave Period
APD
sec
5-day plot - Mean Wave Direction
MWD
 
5-day plot - Atmospheric Pressure
PRES
in
5-day plot - Pressure Tendency
PTDY
in
5-day plot - Air Temperature
ATMP
°F
5-day plot - Water Temperature
WTMP
°F
5-day plot - Dew Point
DEWP
°F
5-day plot - Salinity
SAL
psu
5-day plot - Visibility
VIS
nmi
5-day plot - Tide (above MLLW)
TIDE
ft
2024-06-24 02:12 am SW 9.9 14.0----29.89- 81.7 83.1----
2024-06-24 02:06 am SW 8.9 14.0----29.89- 81.7 83.1----
2024-06-24 02:00 am SW 9.9 14.0----29.89+0.00 81.9 83.1----
2024-06-24 01:54 am SW 8.9 14.0----29.89- 82.0 83.3----
2024-06-24 01:48 am SW 8.9 15.0----29.90- 82.0 83.3----
2024-06-24 01:42 am SW 9.9 15.9----29.90- 82.2 83.1----
2024-06-24 01:36 am SW 8.0 11.1----29.90- 82.4 83.1----
2024-06-24 01:30 am SW 9.9 14.0----29.90- 82.6 83.1----
2024-06-24 01:24 am SW 9.9 14.0----29.90- 82.8 83.1----
2024-06-24 01:18 am SW 12.0 18.1----29.90- 82.8 83.1----
2024-06-24 01:12 am SW 9.9 15.0----29.90- 82.8 83.1----
2024-06-24 01:06 am SW 11.1 15.9----29.90- 82.9 83.1----
2024-06-24 01:00 am SW 11.1 15.9----29.90+0.01 82.9 83.1----
2024-06-24 12:54 am SW 11.1 15.9----29.90- 82.9 83.1----
2024-06-24 12:48 am SW 12.0 15.9----29.90- 83.1 83.1----
2024-06-24 12:42 am SW 9.9 14.0----29.90- 83.1 83.1----
2024-06-24 12:36 am SW 9.9 15.9----29.90- 83.1 83.1----
2024-06-24 12:30 am SW 11.1 13.0----29.90- 83.1 83.1----
2024-06-24 12:24 am SW 11.1 17.1----29.90- 83.1 83.3----
2024-06-24 12:18 am SW 12.0 18.1----29.90- 83.3 83.3----
2024-06-24 12:12 am SW 12.0 17.1----29.90- 83.3 83.3----
2024-06-24 12:06 amSSW 11.1 15.0----29.90- 83.1 83.3----
2024-06-24 12:00 amSSW 8.0 13.0----29.90+0.02 83.1 83.1----
2024-06-23 11:54 pmSSW 9.9 17.1----29.90- 82.9 83.1----
2024-06-23 11:48 pmSSW 9.9 14.0----29.90-- 83.1----
2024-06-23 11:42 pmSSW 9.9 15.9----29.90-- 83.1----
2024-06-23 11:36 pmSSW 11.1 15.9----29.90-- 83.1----
2024-06-23 11:30 pmSSW 8.0 13.0----29.90- 83.3 83.1----
2024-06-23 11:24 pmSSW 11.1 15.9----29.90- 83.3 83.1----
2024-06-23 11:18 pmSSW 8.9 14.0----29.90- 83.3 83.1----
2024-06-23 11:12 pmSSW 8.0 13.0----29.90- 83.5 83.1----
2024-06-23 11:06 pmSSW 8.9 14.0----29.90- 83.5 83.1----
2024-06-23 11:00 pmSSW 8.9 13.0----29.90+0.01 83.7 83.1----
2024-06-23 10:54 pmSSW 8.9 13.0----29.90- 83.5 83.1----
2024-06-23 10:48 pmSSW 8.9 13.0----29.90- 83.7 83.1----
2024-06-23 10:42 pmSSW 11.1 18.1----29.90- 83.7 83.1----
2024-06-23 10:36 pmSSW 9.9 19.0----29.90- 83.7 83.1----
2024-06-23 10:30 pmSSW 8.9 15.0----29.89- 83.7 83.1----
2024-06-23 10:24 pmSSW 8.9 14.0----29.89- 83.7 83.1----
2024-06-23 10:18 pmSSW 8.9 15.0----29.89- 83.7 83.1----
2024-06-23 10:12 pmSSW 8.9 13.0----29.89- 83.7 83.1----
2024-06-23 10:06 pmSSW 12.0 17.1----29.89- 83.5 83.1----
2024-06-23 10:00 pmSSW 11.1 15.9----29.89-0.01 83.5 83.1----
2024-06-23 09:54 pmSSW 9.9 15.0----29.88- 83.5 83.1----
2024-06-23 09:48 pmSSW 8.9 15.0----29.89-- 83.1----
2024-06-23 09:42 pmSSW 8.9 15.0----29.89-- 83.1----
2024-06-23 09:36 pmSSW 9.9 15.9----29.88-- 83.1----
2024-06-23 09:30 pmSSW 7.0 11.1----29.88-------
2024-06-23 09:24 pmSSW 7.0 14.0----29.88-------
2024-06-23 09:18 pmSSW 8.9 13.0----29.88- 82.8 83.3----
2024-06-23 09:12 pmSSW 8.0 13.0----29.88- 82.6 83.3----
2024-06-23 09:06 pmSSW 7.0 11.1----29.88- 82.4 83.3----
2024-06-23 09:00 pmSSW 8.0 13.0----29.88-0.01 82.0 83.3----
2024-06-23 08:54 pmSSW 11.1 15.0----29.88- 81.9 83.3----
2024-06-23 08:48 pmSSW 7.0 11.1----29.88- 82.0 83.3----
2024-06-23 08:42 pm SW 8.9 15.0----29.88- 81.9 83.5----
2024-06-23 08:36 pmSSW 6.0 8.9----29.88- 81.9 83.5----
2024-06-23 08:30 pmSSW 8.9 13.0----29.88- 81.5 83.5----
2024-06-23 08:24 pmSSW 8.0 13.0----29.88- 81.5 83.5----
2024-06-23 08:18 pmSSW 8.9 14.0----29.88- 81.3 83.5----
2024-06-23 08:12 pmSSW 8.9 14.0----29.89- 81.1 83.5----
2024-06-23 08:06 pmSSW 8.9 13.0----29.89- 81.5 83.5----
2024-06-23 08:00 pmSSW 7.0 12.0----29.89+0.01 81.5 83.5----
2024-06-23 07:54 pmSSW 5.1 8.0----29.88- 81.1 83.3----
2024-06-23 07:48 pm SW 5.1 8.0----29.88- 80.8 83.5----
2024-06-23 07:42 pm SW 7.0 8.9----29.88- 80.6 83.5----
2024-06-23 07:36 pmSSW 5.1 7.0----29.88- 80.6 83.3----
2024-06-23 07:30 pm SW 7.0 8.0----29.88- 81.0 83.3----
2024-06-23 07:24 pm SW 8.9 13.0----29.89- 81.7 83.3----
2024-06-23 07:18 pm SW 8.9 14.0----29.89-- 83.3----
2024-06-23 07:12 pmSSW 4.1 6.0----29.88-- 83.3----
2024-06-23 07:06 pm SW 9.9 12.0----29.89-- 83.5----
2024-06-23 07:00 pm SW 8.9 12.0----29.90-0.01------
2024-06-23 06:54 pm SW 8.9 13.0----29.90-------
2024-06-23 06:48 pmWSW 8.9 14.0----29.91- 84.6 83.7----
2024-06-23 06:42 pm SW 8.9 15.0----29.91- 85.3 83.7----
2024-06-23 06:36 pmWSW 9.9 15.0----29.91- 85.3 83.7----
2024-06-23 06:30 pm SW 12.0 17.1----29.90- 84.6 83.7----
2024-06-23 06:24 pm SW 12.0 18.1----29.90- 84.7 83.7----
2024-06-23 06:18 pmSSW 9.9 14.0----29.89-- 83.7----
2024-06-23 06:12 pmSSW 9.9 17.1----29.89-- 83.7----
2024-06-23 06:06 pm SW 13.0 17.1----29.89-- 83.7----
2024-06-23 06:00 pmSSW 12.0 18.1----29.89-0.02 87.1 83.5----
2024-06-23 05:54 pmSSW 9.9 14.0----29.88- 87.4 83.7----
2024-06-23 05:48 pmSSW 9.9 15.0----29.88- 87.4 83.7----
2024-06-23 05:42 pmSSW 6.0 12.0----29.87- 87.6 83.5----
2024-06-23 05:36 pm SW 8.0 12.0----29.87- 88.9 83.5----
2024-06-23 05:30 pm SW 7.0 9.9----29.87- 88.3 83.7----
2024-06-23 05:24 pmWSW 7.0 9.9----29.87- 88.7 83.7----
2024-06-23 05:18 pm SW 7.0 9.9----29.88- 87.6 83.7----
2024-06-23 05:12 pmWSW 8.9 11.1----29.88- 87.3 83.7----
2024-06-23 05:06 pmWSW 6.0 9.9----29.88- 87.4 83.7----
2024-06-23 05:00 pm SW 7.0 12.0----29.88-0.06 86.7 83.7----
2024-06-23 04:54 pm SW 7.0 11.1----29.88- 86.7 83.7----
2024-06-23 04:48 pmWSW 8.0 12.0----29.89- 87.3 83.7----
2024-06-23 04:42 pmWSW 7.0 11.1----29.89- 87.3 83.7----
2024-06-23 04:36 pm SW 7.0 12.0----29.89- 86.2 83.7----
2024-06-23 04:30 pm SW 12.0 17.1----29.90- 84.7 83.7----
2024-06-23 04:24 pm SW 12.0 18.1----29.91- 84.6 83.7----
2024-06-23 04:18 pmSSW 12.0 18.1----29.91- 85.5 83.7----
2024-06-23 04:12 pmSSW 14.0 19.0----29.91- 85.8 83.7----
2024-06-23 04:06 pmSSW 14.0 21.0----29.91- 86.0 83.7----
2024-06-23 04:00 pm SW 13.0 18.1----29.91-0.04 86.5 83.7----
2024-06-23 03:54 pmSSW 8.9 14.0----29.91- 87.1 83.7----
2024-06-23 03:48 pmSSW 11.1 14.0----29.91- 86.2 83.7----
2024-06-23 03:42 pm S 8.9 15.9----29.91- 86.4 83.5----
2024-06-23 03:36 pmSSW 9.9 17.1----29.91- 87.3 83.5----
2024-06-23 03:30 pmSSW 8.9 15.9----29.91- 87.3 83.5----
2024-06-23 03:24 pmSSW 12.0 15.0----29.91- 87.1 83.5----
2024-06-23 03:18 pmSSW 8.0 13.0----29.91- 88.3 83.5----
2024-06-23 03:12 pmSSW 8.0 14.0----29.91- 87.4 83.3----
2024-06-23 03:06 pm S 8.0 15.0----29.91- 87.6 83.3----
2024-06-23 03:00 pm S 7.0 14.0----29.91-0.06 88.3 83.3----
2024-06-23 02:54 pmSSW 8.0 15.0----29.91- 87.8 83.3----
2024-06-23 02:48 pmSSW 8.0 9.9----29.92- 88.9 83.3----
2024-06-23 02:42 pm SW 6.0 13.0----29.92- 89.2 83.3----
2024-06-23 02:36 pmSSW 8.0 9.9----29.92- 89.1 83.1----
2024-06-23 02:30 pmSSW 5.1 7.0----29.93- 88.5 83.1----
2024-06-23 02:24 pm W 4.1 6.0----29.93- 92.3 83.1----
2024-06-23 02:18 pmWNW 7.0 8.0----29.93- 92.1 83.1----
2024-06-23 02:12 pmWNW 5.1 8.0----29.93- 92.1 83.1----
2024-06-23 02:06 pmWNW 6.0 8.0----29.94- 91.2 83.1----
2024-06-23 02:00 pmWNW 5.1 6.0----29.94-0.03 91.9 83.1----
2024-06-23 01:54 pmWNW 8.9 11.1----29.94- 91.2 82.9----
2024-06-23 01:48 pmWNW 8.9 9.9----29.94- 90.5 82.8----
2024-06-23 01:42 pmWNW 8.0 9.9----29.95- 90.0 82.8----
2024-06-23 01:36 pmWNW 8.0 9.9----29.95- 90.0 82.6----
2024-06-23 01:30 pmWNW 8.0 8.9----29.94- 89.8 82.6----
2024-06-23 01:24 pmWNW 5.1 7.0----29.95- 90.0 82.6----
2024-06-23 01:18 pm NW 8.0 8.9----29.95- 89.2 82.6----
2024-06-23 01:12 pmWNW 6.0 8.0----29.95- 89.4 82.6----
2024-06-23 01:06 pmWNW 8.0 9.9----29.95- 88.7 82.6----
2024-06-23 01:00 pmWNW 8.0 11.1----29.95- 88.3 82.6----
2024-06-23 12:54 pmWNW 7.0 8.0----29.95- 88.7 82.4----
2024-06-23 12:48 pmWNW 5.1 7.0----29.95- 89.2 82.4----
2024-06-23 12:42 pmWNW 5.1 6.0----29.96- 88.7 82.4----
2024-06-23 12:36 pm NW 4.1 5.1----29.96- 87.8 82.4----
2024-06-23 12:30 pmWNW 4.1 5.1----29.96- 88.9 82.4----
2024-06-23 12:24 pmWNW 5.1 6.0----29.96- 88.7 82.4----
2024-06-23 12:18 pmWNW 2.9 4.1----29.96- 88.2 82.4----
2024-06-23 12:12 pmWNW 2.9 4.1----29.96- 87.3 82.4----
2024-06-23 12:06 pmWNW 4.1 5.1----29.97- 86.5 82.4----
2024-06-23 12:00 pm W 2.9 5.1----29.97- 86.0 82.4----
2024-06-23 11:54 amWNW 5.1 6.0----29.97- 85.6 82.4----
2024-06-23 11:48 amWNW 5.1 7.0----29.97- 85.8 82.4----
2024-06-23 11:42 amWNW 5.1 6.0----29.97- 86.0 82.4----
2024-06-23 11:36 amWNW 6.0 8.0----29.97- 86.4 82.4----
2024-06-23 11:30 amWNW 6.0 7.0----29.97- 86.0 82.4----
2024-06-23 11:24 am NW 8.0 8.9----29.97- 84.9 82.4----
2024-06-23 11:18 am NW 6.0 8.9----29.97-- 82.4----
2024-06-23 11:12 amWNW 8.0 8.9----29.97-- 82.4----
2024-06-23 11:06 am NW 7.0 8.9----29.97-- 82.4----
2024-06-23 11:00 am NW 7.0 8.9----29.97+0.00------
2024-06-23 10:54 am NW 8.0 11.1----29.97-------
2024-06-23 10:48 am NW 8.0 9.9----29.97- 82.6 82.4----
2024-06-23 10:42 am NW 8.9 11.1----29.97- 82.4 82.4----
2024-06-23 10:36 am NW 8.9 11.1----29.97- 82.4 82.4----
2024-06-23 10:30 am NW 8.0 9.9----29.97- 81.9 82.4----
2024-06-23 10:24 amWNW 9.9 11.1----29.97- 81.7 82.4----
2024-06-23 10:18 am NW 9.9 11.1----29.97-- 82.4----
2024-06-23 10:12 am NW 9.9 13.0----29.97-- 82.4----
2024-06-23 10:06 am NW 9.9 13.0----29.97-- 82.4----
2024-06-23 10:00 am NW 9.9 12.0------ 81.5 82.4----
2024-06-23 09:54 am NW 8.9 11.1------ 81.5 82.4----
2024-06-23 09:48 amWNW 8.9 11.1----29.97- 81.3 82.4----
2024-06-23 09:42 am NW 8.0 9.9----29.97- 81.1 82.4----
2024-06-23 09:36 am NW 8.0 8.9----29.97- 80.8 82.4----
2024-06-23 09:30 am NW 8.0 9.9----29.97-- 82.4----
2024-06-23 09:24 amWNW 7.0 8.9----29.97-- 82.4----
2024-06-23 09:18 amWNW 8.0 8.0----29.97- 81.5 82.4----
2024-06-23 09:12 amWNW 7.0 8.0----29.97- 81.5 82.4----
2024-06-23 09:06 am W 7.0 8.9----29.97- 80.2 82.4----
2024-06-23 09:00 amWNW 8.9 9.9------- 82.4----
2024-06-23 08:54 amWNW 8.0 8.9------- 82.4----
2024-06-23 08:48 amWNW 8.0 9.9----29.97- 79.3 82.4----
2024-06-23 08:42 amWNW 8.9 9.9----29.97- 79.2 82.6----
2024-06-23 08:36 am W 6.0 8.0----29.97- 79.0 82.6----
2024-06-23 08:30 am W 6.0 8.9----29.97- 78.8 82.4----
2024-06-23 08:24 am W 6.0 8.9----29.96- 78.6 82.4----
2024-06-23 08:18 am W 6.0 8.9----29.97- 78.6 82.4----
2024-06-23 08:12 am W 7.0 8.9----29.97- 78.4 82.4----
2024-06-23 08:06 amWSW 5.1 8.0----29.97- 78.4 82.4----
2024-06-23 08:00 amWSW 7.0 9.9----29.97+0.02- 82.4----
2024-06-23 07:54 amWSW 5.1 8.0----29.97-- 82.4----
2024-06-23 07:48 am W 5.1 7.0----29.97- 78.4 82.4----
2024-06-23 07:42 amWSW 5.1 7.0----29.97- 78.4 82.2----
2024-06-23 07:36 amWSW 5.1 7.0----29.97- 78.4 82.2----
2024-06-23 07:30 amWSW 4.1 6.0----29.96- 78.8 82.2----
2024-06-23 07:24 am W 4.1 7.0----29.96- 79.0 82.2----
2024-06-23 07:18 am W 5.1 8.0----29.96-- 82.2----
2024-06-23 07:12 am W 5.1 7.0----29.96-- 82.2----
2024-06-23 07:06 am W 7.0 9.9----29.96-- 82.2----
2024-06-23 07:00 am W 6.0 8.9------ 78.4 82.2----
2024-06-23 06:54 am W 6.0 8.9------ 78.4 82.2----
2024-06-23 06:48 am W 5.1 6.0----29.96- 78.4 82.2----
2024-06-23 06:42 am W 5.1 7.0----29.96- 78.3 82.2----
2024-06-23 06:36 am W 5.1 7.0----29.95- 78.3 82.2----
2024-06-23 06:30 am W 5.1 7.0----29.96- 78.3 82.2----
2024-06-23 06:24 am W 5.1 8.0----29.96- 78.3 82.2----
2024-06-23 06:18 am W 5.1 8.0----29.96- 78.4 82.2----
2024-06-23 06:12 am W 6.0 8.0----29.96- 78.4 82.2----
2024-06-23 06:06 am W 6.0 8.9----29.95- 78.4 82.2----
2024-06-23 06:00 am W 7.0 9.9----29.95-0.03- 82.2----
2024-06-23 05:54 am W 7.0 8.9----29.95-- 82.2----
2024-06-23 05:48 amWSW 6.0 11.1----29.94- 78.8 82.2----
2024-06-23 05:42 amWSW 7.0 9.9----29.95- 79.0 82.2----
2024-06-23 05:36 amWSW 7.0 9.9----29.95- 79.0 82.2----
2024-06-23 05:30 amWSW 5.1 6.0----29.95- 79.2 82.2----
2024-06-23 05:24 amWSW 7.0 11.1----29.95- 79.2 82.2----
2024-06-23 05:18 amWSW 5.1 11.1----29.95- 79.3 82.2----
2024-06-23 05:12 amWSW 5.1 9.9----29.95- 79.5 82.2----
2024-06-23 05:06 amWSW 6.0 11.1----29.95- 79.7 82.2----
2024-06-23 05:00 am SW 8.0 12.0----29.95- 79.7 82.2----
2024-06-23 04:54 am SW 8.0 12.0----29.95- 79.9 82.2----
2024-06-23 04:48 am SW 6.0 8.0----29.95- 80.1 82.2----
2024-06-23 04:42 am SW 8.0 13.0----29.95- 80.2 82.2----
2024-06-23 04:36 am SW 8.0 11.1----29.95- 80.4 82.2----
2024-06-23 04:30 amSSW 6.0 8.0----29.95- 80.2 82.2----
2024-06-23 04:24 amSSW 7.0 11.1----29.95- 80.2 82.2----
2024-06-23 04:18 amSSW 5.1 12.0----29.95- 80.2 82.4----
2024-06-23 04:12 amSSW 8.0 13.0----29.95- 80.1 82.2----
2024-06-23 04:06 am S 6.0 13.0----29.96- 80.1 82.4----
2024-06-23 04:00 am S 6.0 13.0----29.96-0.06 79.9 82.4----
2024-06-23 03:54 am S 6.0 11.1----29.96- 79.9 82.4----
2024-06-23 03:48 am S 5.1 8.9----29.96- 79.9 82.4----
2024-06-23 03:42 am S 6.0 11.1----29.96- 79.9 82.4----
2024-06-23 03:36 amSSW 7.0 12.0----29.96- 79.9 82.4----
2024-06-23 03:30 amSSW 5.1 9.9----29.96- 79.9 82.4----
2024-06-23 03:24 amSSW 7.0 12.0----29.97- 79.7 82.4----
2024-06-23 03:18 am S 5.1 9.9----29.97- 79.9 82.4----
2024-06-23 03:12 am S 7.0 13.0----29.97- 79.9 82.4----
2024-06-23 03:06 am S 6.0 13.0----29.97- 79.9 82.4----
2024-06-23 03:00 amSSW 6.0 9.9----29.97-0.05 79.9 82.4----
2024-06-23 02:54 am S 6.0 12.0----29.98- 80.1 82.4----
2024-06-23 02:48 amSSW 7.0 12.0----29.98- 80.1 82.4----
2024-06-23 02:42 am S 8.0 13.0----29.98- 79.9 82.4----
2024-06-23 02:36 am S 6.0 11.1----29.98- 79.7 82.6----
2024-06-23 02:30 am S 7.0 12.0----29.98- 79.7 82.6----
2024-06-23 02:24 am S 5.1 9.9----29.99- 79.5 82.6----
2024-06-23 02:18 am S 6.0 11.1----29.99- 79.3 82.6----
2024-06-23 02:12 am S 6.0 9.9----29.99- 79.2 82.6----
2024-06-23 02:06 am S 6.0 8.9----30.00- 79.3 82.6----
2024-06-23 02:00 am--------- 79.3 82.6----
2024-06-23 01:54 am--------- 79.5 82.6----